• In Germany
  • List of Countries
  • For 7 days
  • Water Temperature
  • Satellite Maps
  • Weather Map
  • Weather Widgets
  • user-avatar
    Login

    Hourly Weather Uige

    Today, 20 June, Wednesday

    Time Temperature Precipitation Wind Pressure Humidity
    00:00 +19°C° 0 mm 1 mps 692 mmHg 84%
    01:00 +18°C° 0 mm 1 mps 692 mmHg 88%
    02:00 +18°C° 0 mm 1 mps 692 mmHg 91%
    03:00 +18°C° 0 mm 1 mps 692 mmHg 93%
    04:00 +16°C° 0 mm 1 mps 692 mmHg 95%
    05:00 +18°C° 0 mm 1 mps 692 mmHg 93%
    06:00 +18°C° 0 mm 1 mps 692 mmHg 92%
    07:00 +19°C° 0 mm 1 mps 693 mmHg 86%
    08:00 +22°C° 0 mm 1 mps 693 mmHg 72%
    09:00 +25°C° 0 mm 1 mps 694 mmHg 58%
    10:00 +28°C° 0 mm 1 mps 694 mmHg 45%
    11:00 +30°C° 0 mm 1 mps 694 mmHg 38%
    12:00 +32°C° 0 mm 1 mps 694 mmHg 31%
    13:00 +35°C° 0 mm 1 mps 694 mmHg 24%
    14:00 +34°C° 0 mm 1 mps 693 mmHg 23%
    15:00 +33°C° 0 mm 1 mps 693 mmHg 23%
    16:00 +33°C° 0 mm 1 mps 692 mmHg 23%
    17:00 +30°C° 0 mm 1 mps 692 mmHg 30%
    18:00 +27°C° 0 mm 1 mps 692 mmHg 38%
    19:00 +24°C° 0 mm 1 mps 692 mmHg 45%
    20:00 +23°C° 0 mm 1 mps 692 mmHg 51%
    21:00 +22°C° 0 mm 1 mps 693 mmHg 58%
    22:00 +21°C° 0 mm 1 mps 693 mmHg 64%
    23:00 +20°C° 0 mm 1 mps 693 mmHg 73%

    Tomorrow, 21 June, Thursday

    Time Temperature Precipitation Wind Pressure Humidity
    00:00 +20°C° 0 mm 1 mps 693 mmHg 81%
    01:00 +19°C° 0 mm 1 mps 693 mmHg 90%
    02:00 +19°C° 0 mm 1 mps 693 mmHg 90%
    03:00 +18°C° 0 mm 2 mps 693 mmHg 90%
    04:00 +18°C° 0 mm 2 mps 693 mmHg 91%
    05:00 +18°C° 0 mm 2 mps 693 mmHg 90%
    06:00 +19°C° 0 mm 1 mps 694 mmHg 89%
    07:00 +19°C° 0 mm 1 mps 694 mmHg 89%
    08:00 +22°C° 0 mm 1 mps 694 mmHg 76%
    09:00 +25°C° 0 mm 1 mps 695 mmHg 64%
    10:00 +27°C° 0 mm 1 mps 695 mmHg 52%
    11:00 +30°C° 0 mm 1 mps 695 mmHg 44%
    12:00 +32°C° 0 mm 1 mps 695 mmHg 36%
    13:00 +35°C° 0 mm 1 mps 695 mmHg 29%
    14:00 +34°C° 0 mm 1 mps 694 mmHg 30%
    15:00 +33°C° 0 mm 1 mps 693 mmHg 31%
    16:00 +31°C° 0 mm 1 mps 692 mmHg 32%
    17:00 +30°C° 0 mm 1 mps 693 mmHg 37%
    18:00 +28°C° 0 mm 1 mps 693 mmHg 42%
    19:00 +26°C° 0 mm 1 mps 693 mmHg 47%
    20:00 +25°C° 0 mm 1 mps 693 mmHg 55%
    21:00 +23°C° 0 mm 1 mps 694 mmHg 62%
    22:00 +22°C° 0 mm 1 mps 694 mmHg 69%
    23:00 +21°C° 0 mm 1 mps 694 mmHg 75%

    Day after tomorrow, 22 June, Friday

    Time Temperature Precipitation Wind Pressure Humidity
    00:00 +20°C° 0 mm 1 mps 694 mmHg 81%
    01:00 +19°C° 0 mm 1 mps 694 mmHg 86%
    02:00 +19°C° 0 mm 1 mps 693 mmHg 89%
    03:00 +19°C° 0 mm 1 mps 693 mmHg 91%
    04:00 +18°C° 0 mm 1 mps 693 mmHg 94%
    05:00 +19°C° 0 mm 1 mps 693 mmHg 93%
    06:00 +19°C° 0 mm 1 mps 693 mmHg 91%
    07:00 +19°C° 0 mm 1 mps 694 mmHg 90%
    08:00 +22°C° 0 mm 1 mps 694 mmHg 75%
    09:00 +26°C° 0 mm 1 mps 695 mmHg 60%
    10:00 +29°C° 0 mm 1 mps 696 mmHg 46%
    11:00 +31°C° 0 mm 1 mps 695 mmHg 40%
    12:00 +33°C° 0 mm 1 mps 695 mmHg 34%
    13:00 +35°C° 0 mm 1 mps 695 mmHg 28%
    14:00 +34°C° 0 mm 1 mps 694 mmHg 31%
    15:00 +32°C° 0 mm 1 mps 693 mmHg 33%
    16:00 +31°C° 0 mm 1 mps 692 mmHg 36%
    17:00 +29°C° 0 mm 1 mps 692 mmHg 39%
    18:00 +28°C° 0 mm 1 mps 692 mmHg 43%
    19:00 +27°C° 0 mm 1 mps 693 mmHg 47%
    20:00 +25°C° 0 mm 1 mps 693 mmHg 53%
    21:00 +24°C° 0 mm 1 mps 693 mmHg 59%
    22:00 +22°C° 0 mm 1 mps 694 mmHg 65%
    23:00 +21°C° 0 mm 1 mps 693 mmHg 71%

    23 June, Saturday

    Time Temperature Precipitation Wind Pressure Humidity
    00:00 +20°C° 0 mm 1 mps 693 mmHg 77%
    01:00 +20°C° 0 mm 1 mps 693 mmHg 83%
    02:00 +19°C° 0 mm 1 mps 693 mmHg 87%
    03:00 +19°C° 0 mm 1 mps 692 mmHg 90%
    04:00 +18°C° 0 mm 1 mps 692 mmHg 94%
    05:00 +18°C° 0 mm 1 mps 692 mmHg 92%
    06:00 +19°C° 0 mm 1 mps 693 mmHg 91%
    07:00 +19°C° 0 mm 1 mps 693 mmHg 90%
    08:00 +22°C° 0 mm 1 mps 694 mmHg 73%
    09:00 +26°C° 0 mm 1 mps 694 mmHg 56%
    10:00 +29°C° 0 mm 1 mps 695 mmHg 40%
    11:00 +31°C° 0 mm 1 mps 694 mmHg 35%
    12:00 +33°C° 0 mm 1 mps 694 mmHg 31%
    13:00 +35°C° 0 mm 1 mps 693 mmHg 26%
    14:00 +34°C° 0 mm 1 mps 692 mmHg 28%
    15:00 +33°C° 0 mm 1 mps 692 mmHg 29%
    16:00 +32°C° 0 mm 1 mps 691 mmHg 30%
    17:00 +31°C° 0 mm 1 mps 691 mmHg 34%
    18:00 +29°C° 0 mm 1 mps 691 mmHg 38%
    19:00 +27°C° 0 mm 1 mps 692 mmHg 41%
    20:00 +26°C° 0 mm 1 mps 692 mmHg 47%
    21:00 +24°C° 0 mm 1 mps 692 mmHg 53%
    22:00 +23°C° 0 mm 1 mps 692 mmHg 59%
    23:00 +22°C° 0 mm 1 mps 692 mmHg 66%

    24 June, Sunday

    Time Temperature Precipitation Wind Pressure Humidity
    00:00 +21°C° 0 mm 1 mps 692 mmHg 72%
    01:00 +20°C° 0 mm 1 mps 692 mmHg 78%
    02:00 +19°C° 0 mm 1 mps 691 mmHg 82%
    03:00 +19°C° 0 mm 1 mps 691 mmHg 86%
    04:00 +18°C° 0 mm 1 mps 691 mmHg 91%
    05:00 +19°C° 0 mm 1 mps 691 mmHg 89%
    06:00 +19°C° 0 mm 1 mps 692 mmHg 88%
    07:00 +19°C° 0 mm 1 mps 692 mmHg 86%
    08:00 +23°C° 0 mm 1 mps 693 mmHg 71%
    09:00 +27°C° 0 mm 1 mps 694 mmHg 55%
    10:00 +30°C° 0 mm 1 mps 694 mmHg 40%
    11:00 +32°C° 0 mm 1 mps 694 mmHg 36%
    12:00 +33°C° 0 mm 1 mps 693 mmHg 33%
    13:00 +35°C° 0 mm 1 mps 693 mmHg 29%
    14:00 +34°C° 0 mm 1 mps 692 mmHg 32%
    15:00 +32°C° 0 mm 1 mps 691 mmHg 34%
    16:00 +31°C° 0 mm 1 mps 691 mmHg 37%
    17:00 +29°C° 0 mm 1 mps 691 mmHg 41%
    18:00 +28°C° 0 mm 1 mps 692 mmHg 45%
    19:00 +26°C° 0 mm 1 mps 692 mmHg 49%
    20:00 +25°C° 0 mm 1 mps 692 mmHg 55%
    21:00 +24°C° 0 mm 1 mps 692 mmHg 61%
    22:00 +22°C° 0 mm 1 mps 693 mmHg 67%
    23:00 +22°C° 0 mm 1 mps 693 mmHg 74%

    25 June, Monday

    Time Temperature Precipitation Wind Pressure Humidity
    00:00 +21°C° 0 mm 1 mps 692 mmHg 80%
    01:00 +20°C° 0 mm 1 mps 692 mmHg 87%
    02:00 +20°C° 0 mm 1 mps 692 mmHg 89%
    03:00 +19°C° 0 mm 1 mps 692 mmHg 91%
    04:00 +19°C° 0 mm 1 mps 692 mmHg 94%
    05:00 +19°C° 0 mm 1 mps 692 mmHg 92%
    06:00 +19°C° 0 mm 2 mps 693 mmHg 90%
    07:00 +19°C° 0 mm 2 mps 693 mmHg 88%
    08:00 +22°C° 0 mm 1 mps 693 mmHg 78%
    09:00 +24°C° 0 mm 1 mps 694 mmHg 69%
    10:00 +26°C° 0 mm 1 mps 694 mmHg 59%
    11:00 +28°C° 0 mm 1 mps 694 mmHg 52%
    12:00 +30°C° 0 mm 1 mps 693 mmHg 45%
    13:00 +32°C° 0 mm 1 mps 693 mmHg 38%
    14:00 +31°C° 0 mm 1 mps 692 mmHg 38%
    15:00 +31°C° 0 mm 1 mps 692 mmHg 39%
    16:00 +30°C° 0 mm 1 mps 691 mmHg 40%
    17:00 +29°C° 0 mm 1 mps 691 mmHg 46%
    18:00 +27°C° 0 mm 1 mps 692 mmHg 52%
    19:00 +25°C° 0 mm 1 mps 692 mmHg 58%
    20:00 +24°C° 0 mm 1 mps 692 mmHg 62%
    21:00 +23°C° 0 mm 1 mps 692 mmHg 66%
    22:00 +22°C° 0 mm 1 mps 693 mmHg 71%
    23:00 +21°C° 0 mm 1 mps 692 mmHg 77%
    Show more